Content
SEND FEEDBACK

Daily
Averages
Monthly
Summary
United States of America

YELLOWSTONE NATIONAL PARK, WYOMING


Home > North America > United States > Wyoming
Elevation: 7938 feet     Latitude: 44 34N     Longitude: 110 24W

WEATHER
 
SELECT A DAY
Number of Records: 295,324;   Date Range: 1/1/95 - 7/26/14
 
SHARE

PRINT THIS DATA

[ ← Previous Day ]
WEATHER ALMANAC - JANUARY 19, 2013
[ Next Day → ]
[ °C ]   °F
Weather ElementAverageHighLow
Temperature4.2 °F19 °F (1:56 pm)-11 °F (6:56 am)
Dewpoint-1.6 °F10.9 °F (4:56 pm)-16.1 °F (6:56 am)
Humidity77.8 %88 % (9:56 am)57 % (1:56 pm)
Barometer30.65 in30.74 in (7:56 am)30.53 in (1:56 am)
Wind Speed0.8 mph3.5 mph (11:56 am)
Weather ElementAverage
Wind DirectionENE (57.4 °)

Weather ElementTotal
Precipitation---
Heating Degree Days61 (Base 65)
Averaged from 23 records on January 19, 2013
WEATHER CONDITIONS BREAKOUT
WIND DIRECTION BREAKOUT
WEATHER BY HOUR - JANUARY 19, 2013
[ °C ]   °F
Local TimeTemperatureDewpointHumidityBarometerVisibilityWind DirectionWind SpeedGust SpeedPrecipitationEventsConditions
1:56 AM-2.9 °F-8.0 °F79 %30.53 inCalm
2:56 AM-2.9 °F-8.0 °F79 %30.55 inCalm
3:56 AM-5.1 °F-9.9 °F80 %30.57 inCalm
4:56 AM-7.1 °F-11.9 °F79 %30.62 inCalm
5:56 AM-9.0 °F-14.1 °F79 %30.66 inCalm
6:56 AM-11.0 °F-16.1 °F78 %30.71 inCalm
7:56 AM-9.9 °F-16.1 °F74 %30.74 inCalm
8:56 AM-7.1 °F-9.9 °F87 %30.74 inCalm
9:56 AM0.0 °F-2.9 °F88 %30.70 inCalm
10:56 AM8.1 °F3.0 °F80 %30.71 inCalm
11:56 AM15.1 °F3.9 °F61 %30.65 inESE (120°)3.5 mph
12:56 PM10.0 °F3.0 °F73 %30.69 inCalm
1:56 PM19.0 °F6.1 °F57 %30.62 inCalm
2:56 PM16.0 °F5.0 °F62 %30.63 inCalm
3:56 PM17.1 °F7.0 °F65 %30.63 inCalm
4:56 PM18.0 °F10.9 °F74 %30.63 inCalm
5:56 PM12.9 °F9.0 °F84 %30.67 inCalm
6:56 PM10.9 °F8.1 °F88 %30.69 inCalm
7:56 PM9.0 °F6.1 °F88 %30.72 inCalm
8:56 PM6.1 °F1.9 °F83 %30.71 inWNW (290°)3.5 mph
9:56 PM5.0 °F1.0 °F84 %30.66 inWNW (300°)3.5 mph
10:56 PM3.0 °F-0.9 °F84 %30.63 inNW (310°)3.5 mph
11:56 PM1.0 °F-2.9 °F83 %30.60 inWNW (300°)3.5 mph
Hourly data recorded from KP60, located miles away from Yellowstone National Park, Wyoming







STORIES FROM OUR PARTNERS